Flag Weather past 2 weeks in Ahaus, North Rhine-Westphalia, Germany

Now
56 °F

Fog.


Feels Like: 56 °F
Forecast: 52 / 64 °F
Wind: 2 mph from South

Location: Twenthe

Current Time: Oct 31, 2014 at 1:07:41 AM

Latest Report: Oct 31, 2014 at 12:00 AM


Visibility: 5 mi

Pressure: 30.20 "Hg

Humidity: 94%

Dew point: 55 °F

Location of AhausLocation

Historic Weather in Ahaus — Graph

°F

Ahaus temperature yesterday

Maximum temperature yesterday: 57 °F (at 11:00 PM)
Minimum temperature yesterday: 50 °F (at 5:00 AM)
Average temperature yesterday: 53 °F

Past Weeks' High & Low Weather Summary

 TemperatureHumidityPressure
High72 °F (Oct 19, 2:00 PM)100% (Oct 17, 5:00 AM)30.27 "Hg (Oct 17, 5:00 AM)
Low43 °F (Oct 28, 8:00 AM)66% (Oct 18, 4:00 PM)29.41 "Hg (Oct 21, 4:00 PM)
Average54 °F88%30.01 "Hg
* Reported Midnight between Oct 15 and Oct 16 — Oct 30 11:00 PM, Ahaus, Weather by CustomWeather, © 2014

Note: Actual official high and low records may vary slightly from our data, if they occured in-between our weather recording intervals... More about our weather records

Advertising

Ahaus weather history for previous 24 hours

 ConditionsComfort  
Time TempWeatherWind HumidityBarometerVisibility
11:00 PM
Oct 30
57 °FFog.2 mph94%30.20 "Hg5 mi
10:00 PM56 °FFog.2 mph95%30.20 "Hg4 mi
9:00 PM56 °FFog.2 mph96%30.20 "Hg3 mi
8:00 PM56 °FFog.2 mph96%30.20 "Hg3 mi
7:00 PM56 °FOvercast.2 mph97%30.20 "Hg2 mi
6:00 PM56 °FFog.2 mph96%30.20 "Hg2 mi
5:00 PM56 °FFog.N/A96%30.19 "Hg1 mi
4:00 PM56 °FFog.2 mph96%30.19 "Hg1 mi
3:00 PM55 °FLow clouds.2 mph96%30.20 "Hg1 mi
2:00 PM55 °FFog.2 mph94%30.20 "Hg2 mi
1:00 PM54 °FFog.2 mph97%30.21 "Hg1 mi
12:00 PM53 °FFog.1 mph96%30.22 "Hg2 mi
11:00 AM53 °FFog.1 mph96%30.22 "Hg2 mi
10:00 AM52 °FFog.1 mph96%30.22 "Hg3 mi
9:00 AM51 °FFog.1 mph99%30.21 "Hg3 mi
8:00 AM50 °FFog.3 mph99%30.19 "Hg2 mi
7:00 AM50 °FFog.1 mph99%30.19 "Hg3 mi
6:00 AM50 °FFog.2 mph100%30.17 "Hg2 mi
5:00 AM50 °FLow clouds.1 mph100%30.18 "Hg2 mi
4:00 AM50 °FLow clouds.1 mph99%30.16 "Hg0 mi
3:00 AM50 °FFog.1 mph99%30.15 "Hg2 mi
2:00 AM50 °FFog.1 mph100%30.16 "Hg3 mi
1:00 AM51 °FFog.1 mph100%30.15 "Hg2 mi
Weather by CustomWeather, © 2014

See weather overviewHow to use our weather pages